Other Public Products
Issued by NWS Grand Forks, ND

Home | Current Version | Previous Version | Graphics & Text | Print | Product List | Glossary On
Versions: 1 2 3 4 5 6 7 8 9 10 11 12 13 14 15 16 17 18 19 20 21 22 23 24 25 26 27 28 29 30 31 32 33 34 35 36 37 38 39 40 41 42 43 44 45 46 47 48 49 50
000
FPUS83 KFGF 300510
OPUFGF
PRAIRIE TO PINES WEATHER ROUNDUP
NATIONAL WEATHER SERVICE EASTERN NORTH DAKOTA/GRAND FORKS ND
1200 AM CDT SUN AUG 30 2015

 **SATELLITE DATA USED TO AUGMENT SKY COVER AT AUTOMATED STATIONS**
 *****  WEATHER ACROSS EASTERN NORTH DAKOTA  *****

CITY           SKY/WX    TMP DP  RH WIND       PRES   REMARKS
GRAND FORKS    CLEAR     70  67  90 S12       29.80S
GRAND FORKS AF CLEAR     71  68  93 S12       29.80F
GRAND CITY NWS   N/A     68 N/A N/A S10         N/A
BUXTON         NOT AVBL
DEVILS LAKE    MOCLDY    73  64  73 S10       29.79S
FARGO          CLEAR     70  65  84 S13       29.86S
WAHPETON ARPT  CLEAR     64  61  88 SE8       29.90S
$$

 *****  WEATHER ACROSS CENTRAL AND WESTERN NORTH DAKOTA  *****

CITY           SKY/WX    TMP DP  RH WIND       PRES   REMARKS
JAMESTOWN      CLEAR     71  69  93 S14       29.83F
BISMARCK       PTCLDY    70  63  78 SE8       29.81F
MINOT          CLOUDY    73  60  63 CALM      29.74F HAZE
MINOT AFB      CLOUDY    71  61  70 E5        29.74F
GARRISON         N/A     75  63  66 S7        29.78S
WILLISTON      MOCLDY    70  52  52 CALM      29.74F HAZE
DICKINSON      CLOUDY    67  52  58 S9        29.80F
HETTINGER      MOCLDY    73  53  49 SE9       29.85F
$$

 *****  OTHER OBSERVATIONS NORTHEAST NORTH DAKOTA  *****

CITY           SKY/WX    TMP DP  RH WIND       PRES   REMARKS
WALHALLA       FAIR      68  68 100 MISG      29.76S
LANGDON        FAIR      70  68  94 SW10      29.81S
CAVALIER       FAIR      68  68 100 S7        29.77F
GRAFTON        FAIR      66  66 100 SE6       29.79F
CANDO          NOT AVBL
FORT TOTTEN    NOT AVBL
ROLLA          CLOUDY    66  59  77 SW8       29.80F
RUGBY          FAIR      73  59  60 SE8       29.77F HAZE
 ***** THE ABOVE OBSERVATIONS ARE NON NWS ARE NOT QUALITY
        CONTROLLED AND MAY MIS-REPORT RAIN FOR SNOW...
$$

 *****  OTHER OBSERVATIONS SOUTHEAST NORTH DAKOTA *****

CITY           SKY/WX    TMP DP  RH WIND       PRES   REMARKS
COOPERSTOWN    NOT AVBL
VALLEY CITY    CLOUDY    72  72 100 S12       29.85F
OAKES            N/A     68  68 100 S12       29.88S
GWINNER          N/A     70  70 100 SW12      29.88S
SHEYENNE NWR     N/A     67  65  94 S3        29.95S
BUFFALO        NOT AVBL
WYNDMERE         N/A     64  64 100 SE3         N/A
 ***** THE ABOVE OBSERVATIONS ARE NON NWS ARE NOT QUALITY
       CONTROLLED AND MAY MIS-REPORT RAIN FOR SNOW...
$$

  *****  WEATHER ACROSS NORTHERN MINNESOTA  *****

CITY           SKY/WX    TMP DP  RH WIND       PRES   REMARKS
FLAG ISLAND    CLEAR     66  66 100 S7        29.81F
WARROAD        CLEAR     70  64  83 S8        29.83R
ROSEAU         CLEAR     70  64  83 S12       29.82F
HALLOCK        CLEAR     68  66  94 S9        29.79S
THF RVR FALLS  PTCLDY   N/A N/A N/A S12       29.84F
HALSTAD        NOT AVBL
FOSSTON        CLEAR     64  61  88 S10       29.89S
BAUDETTE       CLEAR     67  64  90 S9        29.85F
WASKISH        FAIR      66  63  88 S7        29.88F
CROOKSTON      CLEAR     70  64  83 S14       29.84S
$$
  *****  WEATHER ACROSS CENTRAL AND WEST MINNESOTA  *****

CITY           SKY/WX    TMP DP  RH WIND       PRES   REMARKS
BEMIDJI        CLEAR     65  61  88 S6        29.91F
PARK RAPIDS    FAIR      64  61  90 S8        29.94F
WADENA         CLEAR     63  61  94 S6        29.94F
DETROIT LAKES  CLEAR     66  63  88 S8        29.92F
MOORHEAD       CLEAR     68  64  88 S14       29.88S
FERGUS FALLS   CLEAR     66  66 100 S10       29.91F
ELBOW LAKE     FAIR      64  64  97 S10       29.93S
MORRIS MN      CLEAR     64  63  94 SE7       29.93S
STAPLES        CLEAR     63  61  94 S7        29.96S
WHEATON        CLEAR     64  61  88 S9        29.92S
$$
  *****  WEATHER ELSEWHERE ACROSS MINNESOTA  *****

CITY           SKY/WX    TMP DP  RH WIND       PRES   REMARKS
DULUTH         PTCLDY    64  61  90 SW10      29.98S
INTRNTL FALLS  MOCLDY    66  63  90 VRB5      29.89F
ELY            PTCLDY    63  61  94 SW6       29.96F
CLOQUET        PTCLDY    64  61  88 SW7       29.99S
BRAINERD       CLEAR     61  60  97 S7        29.98F
HIBBING        CLEAR     62  60  93 CALM      29.96F
ALEXANDRIA     CLEAR     65  64  97 S9        29.97F
SAINT CLOUD    CLEAR     60  60 100 S5        29.98F
MINNEAPOLIS    MOCLDY    67  63  87 S6        30.01S
$$

  *****  WEATHER ACROSS SOUTH DAKOTA  *****

CITY           SKY/WX    TMP DP  RH WIND       PRES   REMARKS
SIOUX FALLS    PTCLDY    64  61  90 S9        30.00F
BROOKINGS      CLEAR     64  61  88 SE8       30.00F
WATERTOWN      CLEAR     64  62  93 S10       29.95S
HURON          CLEAR     67  65  93 S9        29.91F
SISSETON         N/A     65  63  93 S8        29.89F
ABERDEEN       CLEAR     68  64  87 S10       29.89S
MITCHELL       CLEAR     67  66  97 S10       29.94F
PIERRE         CLEAR     75  61  61 SE13      29.86F
MOBRIDGE       CLEAR     72  69  90 SE10      29.84S
RAPID CITY     PTCLDY    71  47  42 SE7       29.92F
$$

  *****  SOME WEATHER IN NEARBY STATES *****

CITY           SKY/WX    TMP DP  RH WIND       PRES   REMARKS
GLASGOW MT     MOCLDY    77  47  34 E13       29.67F HAZE
GREAT FALLS MT CLOUDY    66  51  58 SW8       29.78R
CHEYENNE WY    PTCLDY    69  42  37 S13       30.18F
SCOTTSBLUFF NE CLEAR     64  48  56 E9        30.04S
OMAHA NE       CLOUDY    68  64  87 SE5       30.05S
DES MOINES IA  PTCLDY    66  62  87 CALM      30.04S
DAVENPORT IA   CLOUDY    63  63 100 CALM      30.04F FOG
CHICAGO IL     CLOUDY    66  64  93 N6        30.03S FOG
EAU CLAIRE WI  CLEAR     61  59  93 S6        30.03F
LA CROSSE WI   MOCLDY    62  61  96 SE5       30.05R
$$

  *****  SOME NATIONAL WEATHER *****

CITY           SKY/WX    TMP DP  RH WIND       PRES   REMARKS
LA GUARDIA NY  MOCLDY    76  58  53 SW12      30.11R
RALEIGH NC     MOCLDY    69  62  78 CALM      30.16S
ATLANTA GA     CLOUDY    73  63  70 E7        30.13F
NEW ORLEANS LA PTCLDY    78  66  66 SW7       30.03S
OKLAHOMA CITY  MOCLDY    76  65  68 NE10      29.99F
ALBUQUERQUE NM PTCLDY    75  47  36 E10       30.23R
SALT LAKE CITY MOCLDY    85  45  24 S16       29.88S
LOS ANGELES CA CLEAR     75  66  73 W17       29.85R
BOISE ID       LGT RAIN  77  50  38 CALM      29.82S
SEATTLE WA     HVY RAIN  57  55  94 SW7       29.79R FOG
$$

*** WEATHER ACROSS MANITOBA...SASKATCHEWAN AND ONTARIO ***
                ***ONTARIO***

CITY           SKY/WX    TMP DP  RH WIND       PRES   REMARKS
GERALDTON      FOG       61  61 100 SW9       29.94S VSB 3/4
THUNDER BAY    PTCLDY    55  54  94 NW3       29.94F
SIOUX LOOKOUT  CLOUDY    64  63  94 S6        29.86F
TORONTO        CLOUDY    68  59  73 E3        30.08S
BIG TROUT LK   CLOUDY    68  57  68 S6        29.65F
PICKLE LAKE    NOT AVBL
DRYDEN         CLOUDY    68  64  88 S12       29.85F
KENORA         PTCLDY    68  66  94 S12G20    29.82F
$$
                *** MANITOBA***

CITY           SKY/WX    TMP DP  RH WIND       PRES   REMARKS
BRANDON        PTCLDY    59  55  88 NW3       29.76S SMOKE
DAUPHIN        CLEAR     59  57  94 W8        29.71S
ISLAND LAKE    PTCLDY    70  61  73 SW8       29.58F
PILOT MOUND      N/A     64  63  94 SW2         N/A
THE PAS        PTCLDY    66  63  88 N8        29.65R
THOMPSON       PTCLDY    57  54  88 NE9       29.65R
WINNIPEG       CLEAR     70  68  94 SW8       29.75S
LYNN LAKE      CLOUDY    55  54  94 MISG      29.73R
CHURCHILL      CLOUDY    48  46  93 E15       29.78R FOG
$$
                ***SASKATCHEWAN***

CITY           SKY/WX    TMP DP  RH WIND       PRES   REMARKS
ESTEVAN        SMOKE     66  55  68 E6        29.76F VSB 1
KINDERSLEY     CLOUDY    70  50  49 S10       29.62R
LLOYDMINSTER   MOCLDY    68  50  52 SE17      29.52F
PRINCE ALBERT  CLOUDY    63  61  94 E7        29.63F
REGINA         CLOUDY    72  52  49 SE21      29.70F
YORKTON        PTCLDY    64  57  77 S2        29.73F


USA.gov is the U.S. government's official web portal to all federal, state and local government web resources and services.